Hourly Weather Holon

Today, 13 April, Tuesday

Time Temperature Precipitation Wind Pressure Humidity
00:00 +14°C° 0 mm 2 mps 762 mmHg 64%
01:00 +14°C° 0 mm 2 mps 762 mmHg 65%
02:00 +14°C° 0 mm 2 mps 762 mmHg 66%
03:00 +13°C° 0 mm 2 mps 762 mmHg 67%
04:00 +13°C° 0 mm 1 mps 762 mmHg 69%
05:00 +13°C° 0 mm 1 mps 762 mmHg 70%
06:00 +14°C° 0 mm 1 mps 762 mmHg 66%
07:00 +15°C° 0 mm 1 mps 762 mmHg 62%
08:00 +16°C° 0 mm 1 mps 763 mmHg 58%
09:00 +18°C° 0 mm 1 mps 763 mmHg 55%
10:00 +18°C° 0 mm 2 mps 762 mmHg 52%
11:00 +19°C° 0 mm 2 mps 762 mmHg 49%
12:00 +19°C° 0 mm 3 mps 762 mmHg 48%
13:00 +20°C° 0 mm 4 mps 762 mmHg 47%
14:00 +20°C° 0 mm 5 mps 762 mmHg 47%
15:00 +19°C° 0 mm 5 mps 762 mmHg 49%
16:00 +19°C° 0 mm 5 mps 762 mmHg 50%
17:00 +17°C° 0 mm 5 mps 762 mmHg 52%
18:00 +16°C° 0 mm 5 mps 762 mmHg 55%
19:00 +17°C° 0 mm 4 mps 762 mmHg 58%
20:00 +15°C° 0 mm 4 mps 762 mmHg 61%
21:00 +16°C° 0 mm 3 mps 762 mmHg 61%
22:00 +14°C° 0 mm 3 mps 762 mmHg 62%
23:00 +14°C° 0 mm 3 mps 762 mmHg 62%

Tomorrow, 14 April, Wednesday

Time Temperature Precipitation Wind Pressure Humidity
00:00 +15°C° 0 mm 2 mps 762 mmHg 62%
01:00 +15°C° 0 mm 2 mps 761 mmHg 62%
02:00 +14°C° 0 mm 2 mps 761 mmHg 62%
03:00 +14°C° 0 mm 2 mps 761 mmHg 62%
04:00 +13°C° 0 mm 3 mps 761 mmHg 62%
05:00 +13°C° 0 mm 3 mps 761 mmHg 62%
06:00 +14°C° 0 mm 3 mps 761 mmHg 56%
07:00 +16°C° 0 mm 2 mps 762 mmHg 50%
08:00 +18°C° 0 mm 2 mps 762 mmHg 44%
09:00 +19°C° 0 mm 2 mps 762 mmHg 40%
10:00 +20°C° 0 mm 2 mps 761 mmHg 37%
11:00 +23°C° 0 mm 2 mps 761 mmHg 33%
12:00 +22°C° 0 mm 4 mps 761 mmHg 36%
13:00 +22°C° 0 mm 5 mps 760 mmHg 38%
14:00 +22°C° 0 mm 7 mps 760 mmHg 41%
15:00 +22°C° 0 mm 7 mps 760 mmHg 44%
16:00 +21°C° 0 mm 7 mps 760 mmHg 47%
17:00 +20°C° 0 mm 7 mps 760 mmHg 49%
18:00 +20°C° 0 mm 6 mps 760 mmHg 52%
19:00 +19°C° 0 mm 5 mps 760 mmHg 54%
20:00 +17°C° 0 mm 5 mps 760 mmHg 56%
21:00 +16°C° 0 mm 5 mps 760 mmHg 56%
22:00 +17°C° 0 mm 4 mps 760 mmHg 56%
23:00 +17°C° 0 mm 4 mps 760 mmHg 56%

Day after tomorrow, 15 April, Thursday

Time Temperature Precipitation Wind Pressure Humidity
00:00 +16°C° 0 mm 3 mps 759 mmHg 58%
01:00 +16°C° 0 mm 3 mps 759 mmHg 60%
02:00 +16°C° 0 mm 3 mps 759 mmHg 62%
03:00 +16°C° 0 mm 3 mps 759 mmHg 61%
04:00 +16°C° 0 mm 2 mps 759 mmHg 59%
05:00 +16°C° 0 mm 2 mps 759 mmHg 57%
06:00 +18°C° 0 mm 2 mps 759 mmHg 52%
07:00 +19°C° 0 mm 2 mps 759 mmHg 45%
08:00 +21°C° 0 mm 2 mps 759 mmHg 38%
09:00 +22°C° 0 mm 3 mps 759 mmHg 37%
10:00 +23°C° 0 mm 4 mps 759 mmHg 36%
11:00 +26°C° 0 mm 4 mps 759 mmHg 35%
12:00 +19°C° 0 mm 3 mps 759 mmHg 52%
13:00 +22°C° 0 mm 4 mps 758 mmHg 46%
14:00 +27°C° 0 mm 6 mps 758 mmHg 41%
15:00 +26°C° 0 mm 6 mps 758 mmHg 44%
16:00 +24°C° 0 mm 6 mps 758 mmHg 47%
17:00 +23°C° 0 mm 7 mps 758 mmHg 50%
18:00 +22°C° 0 mm 6 mps 758 mmHg 51%
19:00 +21°C° 0 mm 5 mps 758 mmHg 53%
20:00 +20°C° 0 mm 4 mps 758 mmHg 55%
21:00 +20°C° 0 mm 4 mps 758 mmHg 56%
22:00 +20°C° 0 mm 4 mps 758 mmHg 56%
23:00 +19°C° 0 mm 3 mps 758 mmHg 57%

16 April, Friday

Time Temperature Precipitation Wind Pressure Humidity
00:00 +19°C° 0 mm 3 mps 757 mmHg 58%
01:00 +19°C° 0 mm 2 mps 757 mmHg 58%
02:00 +19°C° 0 mm 2 mps 757 mmHg 58%
03:00 +19°C° 0 mm 2 mps 757 mmHg 58%
04:00 +19°C° 0 mm 2 mps 757 mmHg 57%
05:00 +20°C° 0 mm 1 mps 757 mmHg 57%
06:00 +21°C° 0 mm 1 mps 757 mmHg 51%
07:00 +23°C° 0 mm 1 mps 757 mmHg 45%
08:00 +24°C° 0 mm 2 mps 758 mmHg 40%
09:00 +26°C° 0 mm 3 mps 757 mmHg 38%
10:00 +27°C° 0 mm 4 mps 757 mmHg 36%
11:00 +28°C° 0 mm 5 mps 757 mmHg 34%
12:00 +28°C° 0 mm 6 mps 757 mmHg 37%
13:00 +28°C° 0 mm 7 mps 757 mmHg 40%
14:00 +27°C° 0 mm 8 mps 757 mmHg 43%
15:00 +27°C° 0 mm 8 mps 757 mmHg 44%
16:00 +26°C° 0 mm 7 mps 757 mmHg 45%
17:00 +24°C° 0 mm 7 mps 757 mmHg 46%
18:00 +23°C° 0 mm 6 mps 757 mmHg 50%
19:00 +22°C° 0 mm 5 mps 757 mmHg 55%
20:00 +20°C° 0 mm 4 mps 757 mmHg 59%
21:00 +20°C° 0 mm 4 mps 757 mmHg 58%
22:00 +20°C° 0 mm 4 mps 757 mmHg 57%
23:00 +20°C° 0 mm 3 mps 757 mmHg 57%

17 April, Saturday

Time Temperature Precipitation Wind Pressure Humidity
00:00 +20°C° 0 mm 4 mps 757 mmHg 60%
01:00 +19°C° 0 mm 4 mps 757 mmHg 63%
02:00 +19°C° 0 mm 4 mps 757 mmHg 66%
03:00 +18°C° 0 mm 4 mps 757 mmHg 67%
04:00 +18°C° 0 mm 3 mps 757 mmHg 67%
05:00 +18°C° 0 mm 2 mps 757 mmHg 68%
06:00 +20°C° 0 mm 2 mps 757 mmHg 59%
07:00 +23°C° 0 mm 1 mps 757 mmHg 50%
08:00 +25°C° 0 mm 1 mps 757 mmHg 42%
09:00 +26°C° 0 mm 2 mps 757 mmHg 41%
10:00 +27°C° 0 mm 3 mps 757 mmHg 41%
11:00 +28°C° 0 mm 4 mps 757 mmHg 41%
12:00 +28°C° 0 mm 4 mps 757 mmHg 42%
13:00 +28°C° 0 mm 5 mps 757 mmHg 43%
14:00 +28°C° 0 mm 5 mps 757 mmHg 44%
15:00 +28°C° 0 mm 5 mps 757 mmHg 44%
16:00 +27°C° 0 mm 5 mps 757 mmHg 45%
17:00 +26°C° 0 mm 4 mps 757 mmHg 45%
18:00 +25°C° 0 mm 4 mps 757 mmHg 49%
19:00 +23°C° 0 mm 4 mps 757 mmHg 52%
20:00 +22°C° 0 mm 3 mps 758 mmHg 55%
21:00 +22°C° 0 mm 3 mps 758 mmHg 56%
22:00 +21°C° 0 mm 3 mps 758 mmHg 57%
23:00 +21°C° 0 mm 3 mps 758 mmHg 58%

18 April, Sunday

Time Temperature Precipitation Wind Pressure Humidity
00:00 +21°C° 0 mm 2 mps 758 mmHg 58%
01:00 +20°C° 0 mm 2 mps 758 mmHg 58%
02:00 +21°C° 0 mm 1 mps 758 mmHg 58%
03:00 +20°C° 0 mm 2 mps 757 mmHg 53%
04:00 +21°C° 0 mm 2 mps 757 mmHg 48%
05:00 +21°C° 0 mm 2 mps 757 mmHg 43%
06:00 +25°C° 0 mm 2 mps 757 mmHg 40%
07:00 +27°C° 0 mm 2 mps 757 mmHg 36%
08:00 +29°C° 0 mm 2 mps 758 mmHg 33%
09:00 +30°C° 0 mm 2 mps 758 mmHg 31%
10:00 +32°C° 0 mm 2 mps 758 mmHg 30%
11:00 +34°C° 0 mm 2 mps 758 mmHg 28%
12:00 +33°C° 0 mm 4 mps 758 mmHg 33%
13:00 +32°C° 0 mm 6 mps 758 mmHg 38%
14:00 +29°C° 0 mm 7 mps 758 mmHg 42%
15:00 +30°C° 0 mm 7 mps 757 mmHg 42%
16:00 +30°C° 0 mm 6 mps 757 mmHg 41%
17:00 +30°C° 0 mm 6 mps 757 mmHg 40%
18:00 +29°C° 0 mm 5 mps 757 mmHg 40%
19:00 +29°C° 0 mm 4 mps 757 mmHg 39%
20:00 +28°C° 0 mm 4 mps 757 mmHg 38%
21:00 +28°C° 0 mm 4 mps 756 mmHg 36%
22:00 +28°C° 0 mm 3 mps 756 mmHg 34%
23:00 +28°C° 0 mm 3 mps 756 mmHg 32%
Show more